Location: Bakov nad Jizerou
(50.4784°N, 14.9394°E)
Time: 13:12:41
(UTC+00:00)

Cosmos 1536 Rocket - Pass Details

Date: 26 October 2021
Orbit: 605 x 632 km, 82.5° (Epoch: 05 December)

Event Time Altitude Azimuth Distance (km) Brightness Sun altitude
Rises 03:26:54 0° 154° (SSE) 2,887 7.2 -21.9°
Reaches altitude 10° 03:29:27 10° 140° (SE) 1,981 6.6 -21.5°
Maximum altitude 03:32:55 23° 87° (E) 1,308 6.0 -20.9°
Drops below altitude 10° 03:36:23 10° 35° (NE) 1,981 6.7 -20.4°
Sets 03:38:57 0° 21° (NNE) 2,887 7.3 -20.0°
